Wind_Speed
30 30 32 33 32 31 31 31 29 28 32 34 34 35 36 37 36 36 37 38 40 40 39 38 38 38 39 39 39 40 41 42 43 45 45 46 48 50 50 51 50 51 51
35 35 35 35 34 34 33 32 32 32 33 33 33 34 36 36 36 37 39 40 41 42 42 41 42 42 41 41 41 42 44 45 47 48 49 51 51 52 53 55 55 55 55
39 39 38 39 37 38 39 39 39 41 38 39 40 41 40 40 40 42 44 43 45 44 45 46 44 46 46 47 49 50 51 52 51 51 52 53 55 57 57 57 58 58 57
44 43 42 43 43 44 45 46 47 46 46 45 46 46 46 46 47 47 47 47 46 46 46 46 47 48 49 50 52 55 54 55 55 55 57 59 59 59 61 61 59 60 60
48 45 44 46 49 50 50 51 52 53 52 51 51 50 50 52 53 53 53 52 51 51 51 51 49 50 53 55 57 57 56 57 58 61 63 63 63 64 65 67 68 65 62
52 51 51 51 51 52 52 53 54 53 54 54 54 54 56 57 58 58 58 56 57 55 54 56 55 56 57 58 60 61 60 61 62 63 65 68 68 68 71 71 69 68 67
54 54 55 54 53 54 56 57 57 56 56 55 55 56 58 59 59 59 60 61 60 58 58 60 60 61 62 62 62 63 65 66 67 69 73 73 74 75 75 74 75 73 71
58 58 58 58 56 54 55 57 58 60 59 58 59 60 60 61 62 60 59 59 59 59 61 63 64 64 64 64 66 66 68 70 73 75 75 75 76 77 78 77 76 75 75
62 60 61 61 60 59 58 58 59 60 60 60 60 60 60 60 61 62 63 62 62 63 63 63 65 66 67 68 70 72 73 74 75 74 76 78 78 78 80 79 77 76 74
62 62 63 64 63 63 62 62 60 61 62 62 61 62 62 63 64 64 63 64 64 65 65 66 67 69 71 71 75 76 74 76 77 77 80 82 82 79 77 75 72 73 72
61 61 62 62 63 63 63 62 61 60 61 63 62 63 62 62 63 63 63 64 66 67 68 67 68 71 73 75 75 76 78 80 79 80 80 82 82 77 74 71 69 70 67
64 64 64 65 65 62 63 63 62 62 61 64 66 66 68 68 67 69 69 69 70 70 72 73 74 74 74 77 78 78 79 81 80 80 82 82 78 75 72 68 68 66 64
63 62 63 64 64 66 66 65 65 65 66 67 69 69 70 71 71 71 72 72 73 74 75 73 74 75 78 77 79 82 82 81 82 83 82 78 76 73 69 68 66 66 65
65 66 66 66 67 68 68 68 66 67 68 69 69 69 69 69 71 72 74 74 74 75 74 76 76 77 79 81 83 83 83 83 81 78 77 74 71 70 69 66 66 66 65
71 69 69 68 69 70 69 68 67 67 68 68 70 72 71 73 74 76 74 74 73 75 76 76 79 80 80 78 79 81 80 78 77 74 72 70 67 66 66 66 65 66 65
72 73 71 71 72 71 70 70 69 70 69 71 73 74 74 74 76 73 72 72 72 73 75 76 76 76 77 75 73 71 70 69 68 66 65 65 65 64 64 63 62 62 63
75 76 74 74 73 73 72 73 72 72 73 73 74 74 76 75 73 71 70 70 71 70 70 71 70 67 64 64 61 63 62 63 64 63 64 64 65 64 64 64 64 63 62
77 77 76 75 74 74 75 75 74 74 74 72 72 74 74 74 71 69 69 67 64 65 67 66 66 62 62 62 59 60 60 60 60 60 60 61 60 62 63 63 64 64 63
77 77 77 76 77 78 78 79 77 75 71 69 71 72 73 72 69 67 65 65 65 66 68 66 65 65 63 62 63 60 57 55 54 56 55 56 56 57 60 62 63 64 65
81 79 80 81 81 80 80 79 76 74 72 73 73 72 71 70 72 71 69 68 67 66 67 70 64 62 63 62 57 58 59 57 58 58 58 58 60 61 61 61 61 63 64
81 84 83 80 80 80 78 76 76 73 74 72 74 73 72 73 73 71 71 71 64 66 66 67 67 66 64 63 60 61 61 61 64 62 61 64 64 64 60 60 61 61 62
80 80 81 80 78 77 77 78 76 75 73 75 73 76 77 75 77 72 69 72 71 70 71 72 71 67 65 66 64 63 63 68 67 66 66 67 69 65 63 63 60 59 61
77 79 81 82 81 80 79 80 80 79 79 80 81 81 82 83 81 77 74 71 74 73 75 76 73 72 71 71 70 66 70 71 71 70 70 71 71 69 66 67 66 63 60
78 79 79 80 82 84 84 80 82 84 84 84 87 87 87 86 84 77 75 69 72 75 73 76 75 74 75 73 71 72 71 71 72 72 71 73 72 72 71 69 69 65 60
83 84 85 87 88 89 90 90 89 89 87 88 90 90 89 85 87 88 83 80 76 77 74 75 76 75 75 77 78 75 75 75 74 73 74 73 72 74 73 72 69 66 64
85 87 89 91 93 94 95 95 96 95 93 93 94 95 96 97 95 93 86 84 79 77 73 75 77 75 76 77 77 76 74 72 73 72 74 73 73 73 75 71 71 69 67
Wind_Direction
238 244 245 243 245 244 244 249 249 255 257 257 259 260 261 263 265 271 273 275 277 278 277 279 277 277 276 276 277 279 282 284 286 286 287 287 287 287 287 286 286 288 289
243 240 241 242 241 242 243 243 250 258 259 257 263 266 267 270 275 279 280 279 277 275 274 277 278 280 281 281 282 282 283 286 287 285 286 285 285 285 285 286 286 286 287
244 245 241 241 242 244 246 249 254 261 262 262 266 268 270 273 279 282 283 283 281 280 281 283 283 284 283 285 288 290 290 288 286 288 287 288 289 288 288 287 287 287 289
248 247 247 244 245 248 250 253 258 262 266 266 267 270 271 274 277 279 281 283 282 280 281 284 284 283 283 283 285 289 290 289 289 290 293 293 292 291 290 290 289 288 286
253 255 256 255 255 255 257 259 262 263 265 268 271 273 274 276 279 281 281 281 281 280 278 283 282 284 284 284 286 289 289 290 291 293 294 293 293 292 290 291 291 288 289
256 256 259 259 261 262 261 262 264 266 268 271 273 274 275 278 279 280 281 280 282 281 277 282 284 286 287 287 287 288 287 288 289 291 292 291 291 291 291 290 288 288 287
258 258 259 262 263 264 267 267 269 270 270 272 274 275 277 278 279 279 280 281 281 279 278 280 283 287 287 289 289 289 291 292 291 292 293 292 293 292 291 289 288 287 287
255 258 260 262 263 265 267 268 268 269 271 273 274 275 277 278 278 278 279 279 280 281 281 282 283 286 288 289 291 291 291 292 293 293 292 292 293 292 291 290 290 288 289
256 259 262 265 266 268 269 268 269 270 272 274 274 275 275 276 275 276 279 280 281 283 284 285 286 286 287 288 290 291 292 292 292 290 291 291 292 290 290 289 288 286 287
257 260 263 265 268 270 270 270 270 272 273 274 274 275 275 276 276 278 280 282 283 283 284 285 286 287 288 290 291 292 292 291 292 292 292 292 292 290 289 287 285 285 285
258 261 264 267 268 270 272 272 272 271 272 272 274 274 277 279 279 280 282 283 285 285 285 285 287 289 289 290 291 292 292 294 292 293 294 292 292 290 289 287 286 286 285
262 263 265 266 268 270 270 272 273 273 273 274 275 277 280 282 282 282 285 286 287 289 290 290 291 291 291 292 292 292 293 293 292 291 291 290 291 289 288 286 285 285 284
264 263 265 266 266 268 270 272 273 275 275 276 278 279 281 283 284 284 285 288 289 290 289 289 289 290 292 292 291 292 293 291 291 290 290 289 290 288 287 286 285 284 283
266 265 265 267 268 268 269 271 272 274 276 278 280 281 282 284 286 287 288 288 288 288 290 291 291 292 292 292 291 290 289 287 287 288 287 287 286 287 286 286 285 283 283
265 267 268 270 270 271 272 272 274 275 277 280 282 283 284 285 285 286 288 288 287 288 289 289 289 288 289 288 288 288 287 287 285 285 286 286 286 288 288 287 286 285 284
268 268 270 270 272 272 273 274 275 277 280 281 282 283 284 284 285 284 285 285 286 285 287 289 287 289 289 288 288 287 287 287 286 286 286 287 286 286 286 286 287 287 286
266 269 270 271 272 273 274 275 277 278 279 281 282 282 283 284 284 284 284 285 285 286 289 291 291 290 291 291 291 291 290 288 287 287 287 288 288 288 288 287 287 286 285
266 268 270 269 271 272 273 274 275 277 279 279 279 281 282 282 283 283 284 286 288 291 293 293 293 292 296 294 294 292 290 289 289 291 293 292 293 292 291 290 288 286 286
266 267 267 268 269 270 271 272 273 276 276 275 278 279 282 281 284 283 284 285 292 297 294 291 289 290 292 291 291 291 292 292 294 295 295 297 298 297 296 294 291 288 286
266 265 266 268 269 270 271 272 271 272 272 274 275 278 280 280 283 282 285 285 290 293 292 289 291 292 289 291 290 289 292 291 294 296 297 298 298 301 301 298 294 290 287
264 266 265 266 267 269 271 271 272 271 272 272 274 274 276 281 283 284 286 291 292 293 290 290 291 290 291 289 287 291 291 294 296 297 299 301 302 301 302 303 299 294 290
263 265 266 266 266 268 271 271 272 271 272 273 273 274 276 277 279 283 283 287 289 291 290 291 290 289 287 288 289 290 288 296 296 296 298 299 301 301 300 307 304 298 292
260 262 264 266 267 266 266 269 271 272 272 272 273 274 276 278 279 281 280 282 284 286 288 287 287 287 287 287 287 288 288 291 293 293 295 297 299 300 301 305 308 304 301
260 261 263 265 267 267 266 266 266 270 271 273 273 275 276 276 277 278 279 280 279 283 282 281 284 285 287 286 286 287 289 291 292 292 294 296 297 299 299 303 305 302 298
261 263 263 264 264 265 266 267 267 267 269 271 271 272 273 273 275 277 275 276 274 274 277 276 280 283 284 285 285 286 287 289 290 292 293 295 296 298 299 300 301 300 297
260 261 262 264 265 266 266 267 268 268 267 267 269 271 273 275 275 276 275 274 273 272 272 275 277 278 281 282 283 286 288 289 290 290 290 292 293 294 298 296 298 296 296
Height
10906 10907 10908 10910 10911 10913 10913 10915 10916 10918 10919 10920 10920 10921 10921 10922 10922 10921 10921 10921 10920 10918 10917 10917 10917 10916 10914 10913 10911 10910 10910 10910 10909 10907 10906 10905 10903 10901 10900 10898 10897 10895 10893
10899 10901 10903 10904 10906 10908 10908 10909 10911 10912 10914 10915 10915 10916 10917 10917 10916 10916 10916 10916 10915 10914 10913 10912 10912 10912 10909 10907 10906 10905 10904 10903 10902 10901 10899 10897 10895 10894 10892 10890 10889 10887 10885
10893 10895 10897 10899 10902 10904 10904 10905 10906 10907 10909 10910 10910 10911 10911 10911 10910 10910 10910 10910 10909 10908 10906 10905 10905 10904 10903 10901 10899 10898 10897 10896 10895 10893 10892 10890 10888 10886 10884 10882 10879 10878 10876
10886 10889 10892 10894 10895 10897 10898 10899 10901 10901 10903 10904 10905 10905 10905 10905 10904 10904 10903 10903 10902 10901 10899 10898 10896 10895 10894 10893 10891 10890 10889 10887 10885 10884 10881 10879 10877 10876 10873 10871 10870 10869 10867
10880 10883 10885 10887 10889 10890 10891 10893 10894 10895 10896 10897 10897 10898 10897 10897 10897 10895 10894 10894 10894 10893 10891 10890 10888 10887 10885 10884 10882 10882 10880 10878 10875 10873 10870 10868 10866 10864 10862 10859 10858 10857 10856
10872 10874 10877 10879 10880 10882 10884 10885 10886 10887 10888 10889 10889 10889 10889 10888 10888 10887 10886 10885 10885 10884 10884 10882 10879 10877 10875 10873 10872 10870 10868 10868 10865 10864 10861 10857 10856 10854 10851 10848 10847 10845 10844
10865 10867 10869 10871 10873 10875 10876 10876 10877 10878 10879 10879 10879 10879 10879 10879 10878 10878 10877 10876 10875 10874 10873 10872 10870 10867 10865 10862 10861 10859 10857 10855 10854 10852 10848 10845 10843 10841 10838 10836 10833 10832 10831
10856 10858 10860 10862 10865 10866 10866 10867 10867 10868 10869 10869 10870 10869 10869 10869 10868 10868 10867 10866 10865 10863 10862 10861 10858 10857 10854 10852 10849 10848 10846 10843 10841 10838 10836 10833 10830 10828 10824 10822 10820 10818 10817
10847 10849 10851 10853 10855 10856 10857 10857 10857 10858 10860 10860 10860 10859 10859 10857 10857 10857 10856 10855 10854 10853 10851 10849 10847 10844 10842 10840 10838 10835 10833 10831 10828 10824 10821 10819 10818 10815 10812 10809 10806 10804 10803
10838 10840 10842 10843 10845 10846 10847 10847 10848 10849 10848 10849 10849 10848 10847 10847 10846 10846 10845 10843 10842 10841 10839 10837 10835 10832 10829 10827 10825 10821 10819 10817 10814 10810 10806 10804 10801 10799 10797 10793 10790 10790 10790
10828 10829 10831 10833 10833 10835 10835 10836 10837 10838 10838 10837 10836 10836 10835 10836 10835 10833 10832 10831 10830 10828 10826 10826 10824 10820 10817 10815 10811 10808 10805 10803 10799 10796 10792 10789 10785 10784 10782 10780 10776 10776 10775
10818 10820 10820 10820 10822 10823 10823 10824 10826 10826 10826 10825 10825 10825 10824 10823 10823 10821 10819 10818 10817 10816 10813 10812 10811 10807 10804 10801 10797 10794 10791 10788 10785 10782 10778 10775 10771 10768 10768 10765 10763 10761 10761
10804 10807 10809 10810 10810 10811 10812 10813 10814 10815 10814 10813 10813 10813 10811 10810 10808 10807 10806 10805 10804 10801 10800 10798 10796 10793 10790 10786 10783 10779 10775 10773 10770 10768 10764 10760 10757 10755 10753 10752 10750 10747 10746
10790 10794 10796 10798 10799 10799 10801 10801 10802 10802 10802 10800 10800 10798 10798 10797 10795 10793 10793 10792 10790 10786 10785 10784 10781 10778 10775 10770 10767 10763 10759 10757 10754 10752 10749 10746 10743 10741 10740 10739 10736 10734 10732
10777 10781 10783 10787 10787 10788 10789 10790 10790 10789 10789 10789 10786 10785 10784 10783 10782 10780 10779 10777 10775 10772 10770 10768 10766 10764 10760 10756 10752 10748 10744 10741 10739 10737 10734 10732 10729 10727 10726 10725 10723 10721 10719
10762 10764 10772 10773 10774 10776 10776 10777 10777 10777 10778 10776 10774 10771 10770 10770 10768 10767 10766 10763 10761 10759 10756 10753 10751 10748 10744 10741 10736 10732 10729 10726 10725 10723 10720 10718 10715 10713 10712 10710 10709 10707 10705
10748 10751 10757 10761 10762 10762 10763 10763 10764 10764 10764 10763 10760 10758 10756 10756 10755 10753 10751 10749 10747 10744 10741 10738 10735 10732 10728 10725 10721 10719 10716 10712 10710 10709 10706 10704 10702 10700 10698 10696 10694 10692 10690
10738 10741 10744 10747 10749 10749 10749 10750 10750 10750 10751 10748 10747 10745 10743 10743 10742 10739 10735 10733 10731 10730 10728 10725 10721 10719 10716 10713 10709 10707 10704 10700 10698 10697 10694 10691 10689 10686 10683 10681 10679 10677 10675
10728 10729 10731 10733 10734 10734 10735 10735 10737 10738 10737 10737 10734 10731 10729 10728 10727 10725 10722 10721 10721 10719 10716 10712 10709 10708 10704 10701 10698 10695 10692 10689 10687 10685 10682 10680 10677 10674 10670 10667 10663 10660 10658
10712 10717 10717 10718 10720 10720 10720 10720 10721 10724 10722 10720 10720 10720 10717 10714 10714 10712 10711 10711 10709 10707 10704 10700 10698 10696 10692 10690 10686 10684 10681 10678 10676 10674 10671 10668 10665 10661 10657 10653 10649 10646 10643
10700 10699 10703 10707 10703 10702 10704 10705 10705 10707 10705 10706 10704 10708 10704 10701 10699 10699 10699 10695 10693 10693 10689 10687 10685 10682 10679 10677 10675 10673 10670 10667 10664 10661 10658 10655 10652 10648 10644 10640 10635 10631 10628
10687 10687 10686 10688 10692 10693 10690 10686 10688 10688 10691 10690 10692 10689 10689 10689 10688 10689 10689 10682 10680 10679 10676 10674 10671 10668 10666 10663 10662 10662 10657 10654 10651 10648 10645 10642 10639 10635 10632 10628 10623 10618 10614
10675 10671 10671 10671 10673 10677 10679 10673 10672 10671 10671 10672 10672 10673 10672 10674 10674 10675 10675 10674 10667 10664 10662 10658 10656 10652 10651 10651 10648 10647 10645 10641 10638 10635 10632 10629 10625 10622 10619 10615 10609 10604 10600
10657 10657 10656 10657 10657 10656 10658 10662 10660 10656 10655 10655 10653 10652 10654 10655 10657 10658 10659 10661 10657 10653 10650 10644 10640 10638 10635 10635 10634 10632 10631 10628 10625 10622 10619 10615 10612 10608 10605 10602 10597 10591 10586
10642 10641 10639 10638 10639 10636 10636 10640 10641 10643 10640 10636 10634 10634 10634 10637 10637 10640 10644 10646 10642 10639 10637 10633 10628 10626 10622 10619 10618 10617 10617 10615 10611 10609 10604 10601 10597 10594 10591 10587 10582 10577 10573
10624 10623 10621 10620 10617 10616 10616 10616 10616 10618 10621 10621 10617 10616 10615 10616 10620 10620 10621 10622 10625 10624 10622 10620 10616 10615 10610 10606 10603 10602 10601 10601 10596 10593 10590 10586 10582 10578 10574 10571 10566 10562 10558